map of MSQ home
Great Circle Mapper logo
MSQ - Airport
Location
City:  Minsk, Belarus
Name:Minsk-2
ICAO / IATA:UMMS / MSQ

Details
Type:Airport (Aerodrome, Airfield)
Use:Public/Civil, International (customs port of entry)
Latitude:5352'57"N (53.882469)
Longitude:2801'51"E (28.030731)
Datum:WGS 1984
Elevation:670 ft (204 m)
Variation:7.67E (WMM2015 magnetic declination)
0.13 annual change
Runways:1
Longest:11946 × 197 ft (3641 × 60 m), paved

Time
Time Zone:UTC+2 (DST+3)

Weather
METAR:UMMS 271300Z 18003MPS 150V240 CAVOK 19/08 Q1009 R31/CLRD// NOSIG
TAF:UMMS 271045Z 2712/2812 18006MPS 6000 BKN010
TEMPO 2712/2718 VRB14MPS 2000 TSRA SQ SCT015CB
TEMPO 2718/2807 VRB02MPS 0300 FG VV002 PROB40
TEMPO 2718/2807 TSRA SCT015CB

Related Locations
Nearby:
Farthest:CHT: 11130 mi / 17912 km
Waitangi [Tuuta], Chatham Islands, NZ

Find:

   beyond  
but within

Other Information
Maps:
NOTAMs:
Links:
Sources:

  
flag of Belarus   

Sectional Chart

Flight Planning
at skyvector.com

Satellite Image

Google Maps Satellite View

 

Copyright © 2004-2015 Karl L. Swartz. All rights reserved.
The Great Circle Mapper name and logo are trademarks of the Great Circle Mapper.
All other trademarks mentioned herein belong to their respective owners.
Please see credits for attibutions and further copyright information.

  Follow gcmap on Facebook Follow gcmap on Twitter Follow gcmap on Google+

hCard Microformat

Geo Microformat